• In Hungary
  • List of Countries
  • For 7 days
  • Water Temperature
  • Satellite Maps
  • Weather Map
  • News
  • Weather Widgets
  • user-avatar
    Login

    Hourly Weather Burjassot

    Today, 18 January, Thursday

    Time Temperature Precipitation Wind Pressure Humidity
    00:00 +10°C° 0 mm 2 mps 764 mmHg 66%
    01:00 +10°C° 0 mm 2 mps 764 mmHg 67%
    02:00 +9°C° 0 mm 2 mps 764 mmHg 67%
    03:00 +9°C° 0 mm 2 mps 764 mmHg 68%
    04:00 +10°C° 0 mm 1 mps 764 mmHg 71%
    05:00 +10°C° 0 mm 1 mps 764 mmHg 73%
    06:00 +9°C° 0 mm 1 mps 764 mmHg 73%
    07:00 +10°C° 0 mm 1 mps 764 mmHg 71%
    08:00 +11°C° 0 mm 1 mps 764 mmHg 69%
    09:00 +12°C° 0 mm 1 mps 764 mmHg 67%
    10:00 +14°C° 0 mm 1 mps 763 mmHg 62%
    11:00 +16°C° 0 mm 1 mps 763 mmHg 57%
    12:00 +18°C° 0 mm 1 mps 763 mmHg 52%
    13:00 +18°C° 0 mm 1 mps 762 mmHg 50%
    14:00 +19°C° 0 mm 1 mps 761 mmHg 47%
    15:00 +19°C° 0 mm 1 mps 760 mmHg 45%
    16:00 +16°C° 0 mm 1 mps 760 mmHg 55%
    17:00 +14°C° 0 mm 2 mps 760 mmHg 64%
    18:00 +12°C° 0 mm 2 mps 760 mmHg 74%
    19:00 +12°C° 0 mm 1 mps 760 mmHg 74%
    20:00 +12°C° 0 mm 1 mps 760 mmHg 74%
    21:00 +12°C° 0 mm 1 mps 760 mmHg 74%
    22:00 +12°C° 0 mm 1 mps 760 mmHg 71%
    23:00 +12°C° 0 mm 1 mps 760 mmHg 68%

    Tomorrow, 19 January, Friday

    Time Temperature Precipitation Wind Pressure Humidity
    00:00 +12°C° 0 mm 1 mps 760 mmHg 65%
    01:00 +12°C° 0 mm 1 mps 760 mmHg 63%
    02:00 +12°C° 0 mm 1 mps 760 mmHg 61%
    03:00 +12°C° 0 mm 1 mps 759 mmHg 59%
    04:00 +12°C° 0 mm 1 mps 759 mmHg 59%
    05:00 +12°C° 0 mm 2 mps 759 mmHg 60%
    06:00 +10°C° 0 mm 2 mps 759 mmHg 60%
    07:00 +12°C° 0 mm 2 mps 759 mmHg 62%
    08:00 +13°C° 0 mm 2 mps 760 mmHg 63%
    09:00 +13°C° 0 mm 2 mps 760 mmHg 64%
    10:00 +14°C° 0 mm 3 mps 760 mmHg 58%
    11:00 +17°C° 0 mm 3 mps 760 mmHg 52%
    12:00 +18°C° 0 mm 3 mps 759 mmHg 46%
    13:00 +19°C° 0 mm 3 mps 759 mmHg 44%
    14:00 +19°C° 0 mm 3 mps 759 mmHg 43%
    15:00 +20°C° 0 mm 3 mps 759 mmHg 41%
    16:00 +18°C° 0 mm 3 mps 759 mmHg 48%
    17:00 +16°C° 0 mm 3 mps 760 mmHg 55%
    18:00 +14°C° 0 mm 2 mps 760 mmHg 61%
    19:00 +12°C° 0 mm 3 mps 761 mmHg 64%
    20:00 +12°C° 0 mm 3 mps 762 mmHg 66%
    21:00 +11°C° 0 mm 3 mps 763 mmHg 69%
    22:00 +10°C° 0 mm 3 mps 763 mmHg 70%
    23:00 +10°C° 0 mm 4 mps 763 mmHg 72%

    Day after tomorrow, 20 January, Saturday

    Time Temperature Precipitation Wind Pressure Humidity
    00:00 +10°C° 0 mm 4 mps 763 mmHg 73%
    01:00 +8°C° 0 mm 4 mps 763 mmHg 74%
    02:00 +8°C° 0 mm 4 mps 763 mmHg 74%
    03:00 +8°C° 0 mm 4 mps 763 mmHg 74%
    04:00 +8°C° 0 mm 4 mps 763 mmHg 74%
    05:00 +7°C° 0 mm 4 mps 763 mmHg 73%
    06:00 +7°C° 0 mm 4 mps 763 mmHg 73%
    07:00 +8°C° 0 mm 4 mps 764 mmHg 67%
    08:00 +10°C° 0 mm 4 mps 764 mmHg 62%
    09:00 +10°C° 0 mm 5 mps 764 mmHg 57%
    10:00 +13°C° 0 mm 5 mps 764 mmHg 50%
    11:00 +16°C° 0 mm 5 mps 763 mmHg 42%
    12:00 +19°C° 0 mm 6 mps 763 mmHg 35%
    13:00 +19°C° 0 mm 6 mps 762 mmHg 35%
    14:00 +20°C° 0 mm 6 mps 761 mmHg 35%
    15:00 +20°C° 0 mm 6 mps 761 mmHg 35%
    16:00 +19°C° 0 mm 6 mps 761 mmHg 40%
    17:00 +17°C° 0 mm 6 mps 761 mmHg 44%
    18:00 +15°C° 0 mm 6 mps 762 mmHg 48%
    19:00 +15°C° 0 mm 6 mps 762 mmHg 49%
    20:00 +14°C° 0 mm 7 mps 763 mmHg 49%
    21:00 +14°C° 0 mm 7 mps 763 mmHg 50%
    22:00 +13°C° 0 mm 8 mps 763 mmHg 52%
    23:00 +13°C° 0 mm 8 mps 763 mmHg 55%

    21 January, Sunday

    Time Temperature Precipitation Wind Pressure Humidity
    00:00 +13°C° 0 mm 8 mps 763 mmHg 57%
    01:00 +13°C° 0 mm 9 mps 763 mmHg 60%
    02:00 +13°C° 0 mm 9 mps 763 mmHg 62%
    03:00 +13°C° 0 mm 9 mps 763 mmHg 64%
    04:00 +13°C° 0 mm 8 mps 763 mmHg 66%
    05:00 +12°C° 0 mm 8 mps 763 mmHg 68%
    06:00 +12°C° 0 mm 8 mps 764 mmHg 70%
    07:00 +14°C° 0 mm 7 mps 764 mmHg 68%
    08:00 +15°C° 0 mm 7 mps 764 mmHg 66%
    09:00 +15°C° 0 mm 6 mps 764 mmHg 64%
    10:00 +17°C° 0 mm 6 mps 764 mmHg 57%
    11:00 +20°C° 0 mm 6 mps 764 mmHg 50%
    12:00 +22°C° 0 mm 6 mps 764 mmHg 43%
    13:00 +23°C° 0 mm 5 mps 764 mmHg 42%
    14:00 +23°C° 0 mm 4 mps 763 mmHg 40%
    15:00 +24°C° 0 mm 3 mps 763 mmHg 39%
    16:00 +21°C° 0 mm 3 mps 763 mmHg 45%
    17:00 +20°C° 0 mm 3 mps 763 mmHg 51%
    18:00 +18°C° 0 mm 2 mps 764 mmHg 57%
    19:00 +17°C° 0 mm 2 mps 764 mmHg 61%
    20:00 +16°C° 0 mm 3 mps 765 mmHg 64%
    21:00 +14°C° 0 mm 3 mps 765 mmHg 67%
    22:00 +14°C° 0 mm 3 mps 765 mmHg 69%
    23:00 +14°C° 0 mm 3 mps 765 mmHg 71%

    22 January, Monday

    Time Temperature Precipitation Wind Pressure Humidity
    00:00 +13°C° 0 mm 3 mps 765 mmHg 73%
    01:00 +13°C° 0 mm 3 mps 765 mmHg 73%
    02:00 +12°C° 0 mm 3 mps 765 mmHg 74%
    03:00 +12°C° 0 mm 3 mps 765 mmHg 74%
    04:00 +12°C° 0 mm 3 mps 765 mmHg 74%
    05:00 +12°C° 0 mm 3 mps 765 mmHg 73%
    06:00 +12°C° 0 mm 3 mps 765 mmHg 73%
    07:00 +13°C° 0 mm 3 mps 765 mmHg 68%
    08:00 +13°C° 0 mm 3 mps 765 mmHg 64%
    09:00 +14°C° 0 mm 3 mps 766 mmHg 60%
    10:00 +17°C° 0 mm 2 mps 765 mmHg 53%
    11:00 +19°C° 0 mm 2 mps 765 mmHg 45%
    12:00 +21°C° 0 mm 2 mps 765 mmHg 38%
    13:00 +23°C° 0 mm 2 mps 765 mmHg 37%
    14:00 +22°C° 0 mm 3 mps 764 mmHg 36%
    15:00 +22°C° 0 mm 3 mps 764 mmHg 35%
    16:00 +20°C° 0 mm 3 mps 764 mmHg 42%
    17:00 +18°C° 0 mm 3 mps 764 mmHg 49%
    18:00 +16°C° 0 mm 2 mps 765 mmHg 55%
    19:00 +16°C° 0 mm 2 mps 765 mmHg 58%
    20:00 +15°C° 0 mm 2 mps 765 mmHg 60%
    21:00 +14°C° 0 mm 1 mps 766 mmHg 63%
    22:00 +14°C° 0 mm 1 mps 766 mmHg 63%
    23:00 +14°C° 0 mm 1 mps 766 mmHg 62%

    23 January, Tuesday

    Time Temperature Precipitation Wind Pressure Humidity
    00:00 +14°C° 0 mm 2 mps 766 mmHg 62%
    01:00 +13°C° 0 mm 2 mps 766 mmHg 61%
    02:00 +13°C° 0 mm 2 mps 766 mmHg 60%
    03:00 +13°C° 0 mm 2 mps 766 mmHg 59%
    04:00 +13°C° 0 mm 2 mps 766 mmHg 58%
    05:00 +12°C° 0 mm 1 mps 766 mmHg 57%
    06:00 +12°C° 0 mm 1 mps 766 mmHg 55%
    07:00 +13°C° 0 mm 1 mps 767 mmHg 51%
    08:00 +15°C° 0 mm 1 mps 767 mmHg 47%
    09:00 +16°C° 0 mm 1 mps 768 mmHg 43%
    10:00 +18°C° 0 mm 1 mps 767 mmHg 40%
    11:00 +20°C° 0 mm 1 mps 767 mmHg 37%
    12:00 +22°C° 0 mm 1 mps 767 mmHg 34%
    13:00 +21°C° 0 mm 2 mps 767 mmHg 35%
    14:00 +21°C° 0 mm 2 mps 766 mmHg 36%
    15:00 +21°C° 0 mm 2 mps 766 mmHg 38%
    16:00 +19°C° 0 mm 2 mps 766 mmHg 48%
    17:00 +17°C° 0 mm 2 mps 766 mmHg 57%
    18:00 +15°C° 0 mm 2 mps 766 mmHg 67%
    19:00 +14°C° 0 mm 1 mps 766 mmHg 70%
    20:00 +13°C° 0 mm 1 mps 767 mmHg 73%
    21:00 +13°C° 0 mm 1 mps 767 mmHg 77%
    22:00 +13°C° 0 mm 1 mps 767 mmHg 75%
    23:00 +13°C° 0 mm 1 mps 767 mmHg 74%
    Show more